Location: Baia de Cri?
(46.1667°N, 22.7167°E)
Time: 20:18:47
(UTC+00:00)

Cosmos 1515 Rocket - Pass Details

Date: 15 January 2026
Orbit: 599 x 623 km, 82.5° (Epoch: 10 February)

Event Time Altitude Azimuth Distance (km) Brightness Sun altitude
Exits shadow 04:00:42 46° 225° (SW) 828 3.9 -21.5°
Drops below altitude 10° 04:04:07 10° 189° (S) 1,967 6.1 -20.9°
Sets 04:06:20 0° 185° (S) 2,863 7.0 -20.5°
